Location: *
(48.4333°N, 5.0333°W)
Time: 22:56:40
(UTC+00:00)

SJ-6B - Visible Passes

Search period start: 16 June 2021 00:00
Search period end: 26 June 2021 00:00
Orbit: 509 x 580 km, 97.6° (Epoch: 16 June)

Date Brightness Start Highest point End Pass type
(mag) Time Alt. Az. Time Alt. Az. Time Alt. Az.
19 Jun 5.8 21:33:37 10° WSW 21:34:52 11° W 21:36:07 10° WNW visible
20 Jun 5.7 21:27:05 10° WSW 21:28:57 13° W 21:30:50 10° WNW visible
21 Jun 5.6 21:20:44 10° SW 21:23:03 15° W 21:25:21 10° NW visible
22 Jun 5.5 21:14:30 10° SW 21:17:08 17° W 21:19:46 10° NW visible
23 Jun 5.4 21:08:20 10° SW 21:11:14 19° W 21:14:08 10° NW visible
24 Jun 5.3 21:02:13 10° SW 21:05:21 21° W 21:08:27 10° NW visible
